Temp
41 44 45 44 41 42 40 39 32 29 37 41 44 43 42 39 38 37 35 34 33 30 29 32 35 37 39 39 39 39 37 34 29 25 30 30 27 22 18 19 23 19 22 23
30 43 43 38 38 40 42 42 40 40 38 48 47 48 45 41 39 37 37 37 36 35 35 35 39 39 40 40 39 39 37 36 37 36 35 31 31 28 28 19 17 23 18 22
29 41 41 30 32 37 43 46 44 35 42 44 43 44 42 43 44 40 39 39 37 35 35 36 37 39 36 37 37 37 36 37 36 35 34 33 33 31 28 26 24 24 23 24
29 33 20 35 50 50 46 47 49 49 46 44 44 43 43 43 42 43 41 38 36 33 34 35 36 37 37 37 34 32 32 34 34 33 32 32 30 29 28 27 26 25 24 25
26 27 33 40 46 45 43 41 49 45 45 46 46 41 38 44 44 42 40 37 35 33 33 33 34 35 34 33 32 30 28 27 31 31 30 29 28 27 27 27 27 25 25 24
27 24 21 34 49 53 50 29 47 46 45 43 43 30 30 40 42 40 39 37 35 35 35 35 35 35 32 29 28 28 28 28 26 29 29 27 28 27 28 27 29 28 26 23
28 26 30 46 52 52 30 31 46 48 46 43 36 37 39 42 40 41 40 39 38 37 36 37 38 35 31 30 26 30 32 32 31 29 26 25 25 28 26 27 27 24 24 21
28 25 23 50 48 37 41 45 47 46 44 42 41 40 40 38 38 41 40 39 39 37 37 39 39 37 32 30 34 35 34 32 31 30 32 30 25 25 25 24 22 21 23 21
35 30 42 46 44 47 47 46 45 44 44 44 40 37 36 34 36 42 40 39 41 38 37 37 38 37 34 34 37 35 33 30 29 30 29 28 25 23 20 21 21 22 21 19
35 41 44 47 50 50 50 48 48 47 46 44 39 37 35 35 39 41 39 37 38 37 35 35 37 37 36 37 37 34 31 29 28 27 26 26 27 25 21 19 19 21 18 14
35 41 44 46 48 47 49 50 48 48 47 46 40 38 38 40 41 42 41 38 38 36 34 34 36 35 36 36 35 33 31 29 28 27 26 25 25 23 24 21 23 18 12 12
29 43 41 42 46 49 47 48 49 47 44 45 42 40 39 37 39 40 37 37 37 36 35 35 34 34 34 36 34 31 27 27 26 27 26 26 24 22 27 24 27 26 25 15
41 47 44 43 47 50 47 47 49 47 46 43 44 42 40 38 39 38 38 37 36 35 34 34 30 28 27 28 29 28 26 27 26 27 26 25 24 24 19 23 26 26 25 25
47 46 42 45 43 49 50 50 49 47 46 44 43 43 40 39 38 37 35 35 36 35 31 27 26 21 21 22 22 20 21 23 22 20 17 18 16 16 15 14 14 14 22 21
47 48 47 48 48 49 48 46 43 41 41 41 41 39 37 35 34 32 33 34 33 29 25 24 21 18 22 23 23 21 24 16 15 16 15 15 14 15 14 14 12 13 14 12
47 48 48 46 47 48 45 42 39 38 38 36 34 34 35 35 33 32 31 31 29 25 25 22 21 20 21 21 18 18 16 15 16 15 14 15 15 16 16 15 12 10 6 5
42 41 43 43 44 42 42 40 39 36 34 34 33 34 34 31 26 24 21 23 24 22 21 20 16 14 15 14 16 19 17 17 17 19 18 16 14 15 14 11 9 8 3 2
49 48 46 45 43 40 37 37 37 35 34 34 34 31 28 27 23 20 19 20 20 18 17 16 16 14 12 12 17 21 21 21 21 19 19 16 15 17 15 13 11 8 5 10
44 45 46 48 44 39 37 36 35 33 33 33 31 28 26 23 22 20 19 20 19 17 16 15 23 19 21 19 22 22 20 18 20 19 18 14 13 14 11 8 3 1 4 4
36 40 41 39 39 37 34 33 32 31 32 30 28 25 22 22 21 19 19 19 21 21 21 21 23 24 23 21 19 20 18 14 17 12 9 9 3 -0 1 6 5 -1 -4 -3
32 32 33 32 31 33 33 33 32 29 28 29 26 24 22 21 21 20 19 21 18 22 24 21 22 22 21 17 17 14 11 6 5 7 5 1 -1 1 -3 -4 -4 -6 -6 -5
32 32 31 31 31 30 30 31 29 27 26 24 24 23 22 20 20 21 21 23 23 21 23 22 22 17 17 14 16 10 11 10 7 5 2 1 -2 -3 -4 -3 -6 -9 -10 -8
32 31 31 30 30 29 29 29 29 27 26 25 25 23 23 23 24 22 21 25 25 21 22 17 15 13 9 11 9 6 5 4 5 4 2 -3 -3 -6 -8 -8 -10 -10 -11 -11
31 30 30 30 29 29 27 27 29 29 29 27 23 24 25 23 23 27 26 24 22 17 15 13 14 12 10 8 7 6 5 4 4 2 -0 -4 -6 -8 -10 -11 -10 -14 -15 -14
30 29 29 29 29 28 29 29 29 28 28 27 27 28 28 28 23 24 24 19 17 15 12 10 10 9 9 7 6 1 2 3 -1 -2 -5 -6 -9 -11 -12 -11 -15 -16 -16 -12
30 30 30 31 30 30 29 28 26 26 26 24 25 24 24 25 25 22 19 16 14 12 10 7 5 6 8 7 5 3 1 0 -6 -8 -9 -10 -10 -11 -12 -13 -15 -14 -14 -17
30 29 30 32 30 30 29 28 25 24 24 24 24 25 24 23 22 20 17 14 13 10 9 7 5 11 8 5 4 -0 -0 -6 -6 -9 -12 -11 -12 -13 -14 -16 -17 -17 -18 -18
MSLP
1013.57 1013.68 1013.59 1013.32 1013.29 1013.79 1014.53 1015.21 1015.69 1015.55 1015.36 1014.77 1014.84 1015.00 1015.78 1016.98 1018.24 1019.44 1020.72 1021.88 1022.90 1023.80 1024.10 1024.22 1024.04 1024.06 1024.18 1024.26 1024.19 1024.59 1024.92 1025.18 1025.50 1025.53 1025.63 1025.76 1025.88 1026.15 1026.39 1026.18 1025.61 1025.33 1024.95 1024.18
1014.48 1014.32 1014.16 1013.78 1013.67 1013.88 1013.99 1014.23 1014.31 1014.17 1014.46 1014.13 1014.55 1015.14 1016.14 1016.92 1017.97 1019.18 1020.26 1021.09 1022.07 1023.03 1023.71 1023.81 1023.81 1023.84 1023.76 1024.24 1024.46 1024.46 1024.76 1025.08 1025.24 1025.39 1025.52 1025.68 1025.83 1026.08 1026.13 1026.03 1025.86 1025.62 1025.12 1024.69
1015.13 1014.87 1014.55 1014.20 1013.62 1013.10 1012.95 1013.07 1013.32 1013.59 1013.57 1013.97 1014.87 1015.53 1016.17 1016.64 1017.17 1018.25 1019.38 1020.34 1021.30 1022.28 1023.00 1023.30 1023.42 1023.61 1023.93 1024.37 1024.72 1024.83 1025.07 1025.32 1025.52 1025.68 1025.85 1025.93 1026.00 1026.08 1026.07 1026.06 1026.00 1025.84 1025.53 1025.22
1015.29 1015.36 1014.73 1013.49 1012.31 1011.98 1012.03 1012.14 1012.31 1012.59 1013.34 1014.08 1014.65 1015.43 1016.05 1016.46 1016.92 1017.84 1018.74 1019.89 1020.95 1021.79 1022.62 1023.04 1023.38 1023.77 1024.12 1024.58 1025.08 1025.39 1025.70 1025.89 1025.99 1026.13 1026.19 1026.28 1026.31 1026.23 1026.18 1026.21 1026.17 1026.13 1026.05 1025.87
1015.46 1015.52 1014.45 1013.21 1011.98 1011.72 1011.57 1011.65 1011.74 1012.34 1013.41 1014.13 1014.79 1015.91 1016.60 1016.68 1016.82 1017.45 1018.31 1019.46 1020.69 1021.62 1022.30 1022.98 1023.52 1024.08 1024.48 1024.99 1025.41 1025.88 1026.30 1026.54 1026.53 1026.47 1026.51 1026.59 1026.54 1026.50 1026.39 1026.31 1026.38 1026.46 1026.56 1026.40
1015.56 1015.48 1014.16 1012.53 1011.24 1011.32 1011.31 1012.02 1012.10 1012.39 1013.25 1014.07 1014.75 1016.18 1016.92 1017.08 1017.26 1017.78 1018.59 1019.68 1020.89 1021.71 1022.32 1022.95 1023.53 1024.08 1024.70 1025.25 1025.61 1026.09 1026.50 1026.68 1026.64 1026.67 1026.65 1026.75 1026.74 1026.64 1026.54 1026.46 1026.45 1026.70 1026.94 1026.89
1015.05 1015.00 1013.43 1012.01 1011.13 1011.31 1011.87 1012.71 1012.23 1012.55 1013.21 1014.08 1015.16 1015.70 1016.14 1016.95 1017.58 1018.03 1018.79 1019.89 1020.95 1021.73 1022.29 1022.78 1023.36 1024.01 1024.74 1025.22 1025.55 1025.92 1026.28 1026.46 1026.58 1026.67 1026.77 1026.86 1026.91 1026.90 1026.88 1026.83 1026.80 1027.00 1027.18 1027.27
1014.47 1014.42 1013.38 1011.56 1011.20 1011.35 1011.53 1011.68 1012.00 1012.43 1013.21 1014.09 1014.86 1015.73 1016.30 1017.01 1017.68 1018.10 1018.87 1019.80 1020.64 1021.44 1021.96 1022.44 1022.97 1023.62 1024.48 1025.01 1025.28 1025.58 1025.96 1026.32 1026.47 1026.61 1026.81 1027.09 1027.32 1027.48 1027.51 1027.50 1027.59 1027.76 1027.74 1027.72
1012.99 1012.70 1012.08 1011.22 1011.13 1011.12 1011.06 1011.56 1011.93 1012.49 1013.13 1013.78 1014.83 1015.91 1016.66 1017.38 1017.78 1018.08 1018.84 1019.65 1020.32 1021.17 1021.78 1022.30 1022.68 1023.16 1024.04 1024.53 1024.93 1025.41 1025.90 1026.36 1026.61 1026.75 1027.08 1027.40 1027.70 1027.93 1028.10 1028.11 1028.27 1028.34 1028.36 1028.44
1012.12 1011.67 1011.32 1011.31 1010.70 1010.53 1010.96 1011.38 1011.87 1012.34 1012.91 1013.53 1014.72 1015.66 1016.51 1017.20 1017.73 1018.07 1018.73 1019.56 1020.28 1021.14 1021.94 1022.52 1022.72 1023.20 1023.67 1024.25 1024.75 1025.30 1025.94 1026.39 1026.64 1026.98 1027.34 1027.54 1027.86 1028.15 1028.37 1028.56 1028.65 1028.92 1029.09 1029.07
1011.36 1011.18 1010.94 1010.67 1010.60 1010.77 1010.93 1011.24 1011.80 1012.23 1012.70 1013.26 1014.17 1015.42 1016.20 1016.97 1017.42 1017.90 1018.62 1019.40 1020.21 1021.12 1022.00 1022.72 1023.13 1023.62 1023.92 1024.30 1024.78 1025.45 1025.98 1026.39 1026.75 1027.02 1027.50 1027.83 1028.10 1028.21 1028.56 1028.76 1028.70 1029.04 1029.40 1029.47
1011.63 1011.12 1011.02 1010.91 1010.60 1010.51 1010.75 1011.05 1011.28 1011.82 1012.61 1013.00 1013.77 1014.99 1016.01 1016.89 1017.40 1017.90 1018.57 1019.37 1020.31 1021.17 1021.99 1022.78 1023.45 1023.96 1024.25 1024.54 1024.91 1025.56 1026.24 1026.69 1027.06 1027.35 1027.59 1027.87 1028.21 1028.56 1028.58 1028.87 1028.72 1028.83 1029.01 1029.35
1010.63 1010.56 1010.40 1010.32 1010.08 1010.02 1010.11 1010.37 1010.89 1011.50 1012.13 1012.86 1013.56 1014.64 1015.72 1016.58 1017.28 1017.92 1018.68 1019.51 1020.34 1021.21 1022.09 1022.99 1023.81 1024.61 1024.97 1025.14 1025.34 1025.95 1026.55 1027.03 1027.36 1027.61 1027.99 1028.21 1028.31 1028.57 1028.86 1028.81 1028.85 1029.04 1029.16 1029.12
1009.96 1010.10 1010.06 1009.93 1009.85 1009.55 1009.63 1009.87 1010.32 1011.33 1012.05 1012.61 1013.43 1014.52 1015.51 1016.48 1017.35 1018.17 1018.95 1019.64 1020.44 1021.38 1022.42 1023.45 1024.40 1025.26 1025.53 1025.76 1026.13 1026.63 1027.04 1027.39 1027.72 1028.10 1028.36 1028.55 1028.85 1028.89 1028.96 1029.02 1029.23 1029.57 1029.67 1029.77
1009.28 1009.22 1009.25 1009.16 1009.12 1009.20 1009.30 1009.92 1011.03 1011.83 1012.51 1012.96 1013.59 1014.61 1015.58 1016.65 1017.62 1018.49 1019.17 1019.84 1020.78 1021.84 1023.06 1023.94 1024.85 1025.72 1025.87 1026.23 1026.57 1026.97 1027.41 1027.77 1027.93 1028.18 1028.36 1028.52 1028.70 1028.93 1029.18 1029.44 1029.56 1029.94 1030.44 1030.40
1008.47 1008.41 1008.36 1008.54 1008.60 1008.67 1008.99 1009.92 1011.00 1012.00 1012.71 1013.46 1014.31 1015.12 1015.96 1016.91 1017.93 1018.84 1019.55 1020.30 1021.27 1022.55 1023.47 1024.31 1025.14 1025.69 1026.13 1026.52 1026.94 1027.34 1027.63 1027.86 1028.02 1028.26 1028.58 1028.87 1029.00 1029.43 1029.66 1029.85 1030.15 1030.60 1030.94 1031.07
1007.98 1008.06 1007.95 1008.04 1008.37 1008.69 1008.99 1010.06 1010.95 1011.81 1012.96 1013.84 1014.82 1015.63 1016.56 1017.65 1018.73 1019.73 1020.54 1020.88 1021.65 1022.79 1023.69 1024.43 1025.39 1025.74 1026.25 1026.62 1026.95 1027.38 1027.66 1027.85 1027.99 1028.28 1028.67 1029.05 1029.39 1029.69 1029.93 1030.25 1030.65 1031.03 1031.36 1031.21
1007.15 1007.11 1007.19 1007.44 1007.90 1008.58 1009.29 1010.09 1011.18 1012.09 1013.05 1013.90 1015.03 1016.02 1017.13 1018.20 1019.45 1020.44 1021.23 1021.75 1022.59 1023.54 1024.14 1024.69 1025.20 1025.83 1026.34 1026.69 1026.95 1027.13 1027.59 1027.87 1028.13 1028.53 1028.92 1029.33 1029.58 1029.77 1030.15 1030.65 1031.16 1031.50 1031.60 1031.64
1006.96 1006.73 1006.49 1006.60 1007.06 1008.11 1009.13 1010.15 1011.15 1012.08 1013.22 1014.13 1015.32 1016.52 1017.48 1018.58 1019.72 1020.72 1021.45 1022.16 1023.01 1023.90 1024.86 1024.95 1025.44 1026.00 1026.46 1026.78 1027.00 1027.15 1027.53 1027.93 1028.33 1028.80 1029.21 1029.57 1029.99 1030.25 1030.61 1031.01 1031.52 1031.71 1031.84 1032.03
1007.49 1006.77 1006.14 1006.38 1006.97 1008.04 1009.54 1010.55 1011.49 1012.72 1013.72 1014.67 1015.80 1016.99 1018.19 1019.19 1020.03 1020.93 1021.68 1022.39 1022.84 1023.34 1024.36 1024.99 1025.51 1026.02 1026.44 1026.83 1027.16 1027.38 1027.80 1028.22 1028.63 1029.27 1029.65 1030.17 1030.63 1031.35 1031.12 1031.34 1031.76 1032.13 1032.32 1032.48
1008.87 1008.69 1008.33 1008.23 1008.91 1009.58 1010.30 1011.23 1012.11 1013.36 1014.44 1015.11 1016.05 1017.33 1018.35 1019.45 1020.25 1021.01 1021.96 1022.59 1023.07 1023.47 1024.10 1024.81 1025.40 1025.93 1026.46 1027.01 1027.37 1027.73 1028.21 1028.68 1029.18 1029.75 1030.26 1030.97 1031.24 1031.42 1031.75 1031.93 1032.27 1032.53 1032.80 1032.99
1010.02 1009.92 1009.93 1010.08 1010.41 1011.13 1011.72 1012.27 1012.99 1013.97 1014.88 1015.76 1016.71 1017.67 1018.68 1019.70 1020.49 1021.19 1021.66 1022.05 1022.81 1023.39 1024.11 1024.82 1025.40 1025.95 1026.59 1027.17 1027.65 1028.11 1028.62 1029.09 1029.54 1029.98 1030.51 1030.95 1031.52 1032.09 1032.33 1032.53 1032.80 1032.98 1033.23 1033.49
1010.76 1010.84 1010.97 1011.21 1011.51 1012.05 1012.71 1013.24 1013.81 1014.51 1015.29 1016.11 1016.97 1017.89 1018.62 1019.37 1020.06 1020.73 1021.49 1022.06 1022.63 1023.44 1024.17 1024.89 1025.44 1026.12 1026.80 1027.38 1027.93 1028.51 1029.04 1029.48 1029.89 1030.31 1030.81 1031.24 1031.68 1032.04 1032.42 1032.76 1033.07 1033.38 1033.71 1033.90
1011.14 1011.56 1011.77 1012.02 1012.34 1012.78 1013.36 1014.01 1014.48 1015.12 1015.74 1016.54 1017.27 1017.93 1018.54 1019.41 1020.17 1020.49 1021.05 1021.88 1022.73 1023.71 1024.53 1025.26 1025.79 1026.44 1027.03 1027.69 1028.30 1028.87 1029.35 1029.74 1030.16 1030.68 1031.12 1031.56 1031.97 1032.31 1032.69 1033.10 1033.52 1033.88 1034.09 1034.19
1011.62 1012.05 1012.23 1012.42 1012.75 1013.34 1013.84 1014.37 1014.95 1015.64 1016.24 1016.90 1017.56 1018.04 1018.47 1019.02 1019.48 1020.33 1021.08 1022.30 1023.21 1024.05 1025.06 1025.66 1026.24 1026.81 1027.36 1027.98 1028.56 1029.04 1029.48 1029.98 1030.48 1030.98 1031.44 1031.89 1032.32 1032.68 1033.07 1033.50 1033.88 1034.11 1033.95 1033.86
1011.85 1012.11 1012.29 1012.46 1012.85 1013.47 1014.04 1014.62 1015.21 1015.85 1016.39 1017.11 1017.72 1018.11 1018.59 1019.03 1019.82 1020.79 1021.81 1022.82 1023.74 1024.54 1025.41 1026.08 1026.60 1027.08 1027.64 1028.27 1028.81 1029.26 1029.74 1030.37 1030.93 1031.55 1031.92 1032.32 1032.65 1032.93 1033.21 1033.32 1033.53 1033.67 1033.82 1034.02
1011.90 1012.11 1012.36 1012.61 1013.05 1013.51 1014.08 1014.59 1015.20 1015.82 1016.41 1016.93 1017.53 1018.20 1018.81 1019.48 1020.33 1021.22 1022.22 1023.28 1024.17 1025.01 1025.77 1026.33 1026.80 1027.20 1027.85 1028.54 1029.08 1029.50 1029.88 1030.62 1030.90 1031.46 1031.94 1032.15 1032.42 1032.77 1033.07 1033.39 1033.55 1033.65 1033.73 1033.76
Wind_Speed
3 6 6 7 6 3 2 4 4 5 7 8 7 6 6 7 10 11 10 10 8 6 5 4 6 6 4 5 5 6 5 4 3 3 1 2 4 1 3 4 8 5 8 11
3 4 7 12 6 7 9 9 9 14 10 12 6 7 5 7 11 11 10 11 11 10 9 8 7 5 7 5 4 6 6 5 5 5 6 5 5 3 5 3 4 8 7 10
4 5 9 9 10 11 10 9 7 9 10 5 4 7 5 5 10 12 11 12 12 10 8 6 5 6 6 7 6 7 6 6 6 6 6 6 6 5 5 6 4 8 9 10
3 4 6 8 8 9 12 12 12 10 6 7 6 7 6 3 8 12 13 12 11 8 7 7 6 6 6 8 8 7 7 6 7 6 6 6 6 6 6 4 5 7 9 10
4 6 7 13 11 4 6 7 3 8 8 6 6 8 4 4 3 8 8 10 9 8 7 7 7 7 8 7 9 7 4 4 5 5 5 5 5 5 5 4 5 5 6 8
1 4 8 8 12 5 4 3 6 9 6 6 5 3 5 4 4 11 13 12 11 8 7 7 7 9 7 5 6 6 5 3 2 4 4 4 3 4 4 3 4 6 7 6
5 6 6 6 13 4 6 8 5 5 6 5 4 6 6 7 6 10 13 14 12 9 8 8 9 10 8 6 3 6 7 5 4 4 3 1 3 4 5 5 6 5 5 4
4 6 12 7 4 8 5 4 5 2 5 6 6 7 7 8 8 10 13 15 13 10 8 9 10 10 9 8 6 6 6 6 5 5 4 5 7 6 7 7 6 5 6 5
8 7 6 2 5 4 3 2 3 7 6 7 7 6 8 7 8 9 11 10 9 8 9 7 7 7 9 7 7 7 7 6 5 6 6 6 6 6 4 5 5 6 6 6
4 6 8 9 3 3 5 5 6 7 6 5 7 9 8 9 8 9 10 7 6 10 8 5 5 9 8 7 7 7 7 6 5 6 5 5 5 4 3 3 3 5 4 4
2 2 4 2 4 6 6 5 2 6 6 6 10 10 11 11 9 8 11 8 10 10 8 7 7 7 6 6 7 7 6 5 5 5 5 4 4 3 4 1 4 3 1 1
5 4 4 5 5 6 5 6 7 4 5 5 9 12 9 8 6 6 9 8 9 10 10 8 8 7 6 5 7 8 7 4 4 3 3 3 3 3 8 5 7 8 8 3
6 6 7 8 7 8 8 8 7 7 6 8 6 11 12 9 8 8 10 10 9 10 10 10 8 8 7 7 8 7 7 5 3 4 3 3 2 3 3 2 5 6 8 12
8 5 7 5 5 5 4 8 9 7 6 7 8 11 12 10 7 10 10 8 9 10 11 12 11 8 5 6 8 7 6 6 4 3 3 2 2 2 2 3 3 1 8 11
12 11 10 7 7 8 5 9 8 7 6 6 7 11 12 11 10 9 8 8 9 11 11 11 11 6 6 6 6 5 5 3 3 3 2 1 1 2 2 3 3 4 2 4
9 9 9 9 10 12 9 10 10 8 7 6 8 10 11 11 10 10 9 12 13 10 11 10 10 7 6 6 6 5 4 5 3 3 2 3 3 3 3 3 4 4 2 0
8 8 7 8 7 7 9 7 10 9 8 11 11 11 12 11 9 8 6 7 10 10 10 10 8 6 6 5 5 4 3 3 4 2 4 3 2 3 3 3 3 3 2 1
13 12 9 8 7 8 9 11 10 10 10 13 13 11 12 12 11 8 9 10 11 8 7 8 8 7 5 4 1 4 5 3 3 3 4 3 2 2 4 4 3 3 1 1
5 7 12 15 9 11 11 11 10 10 12 14 13 11 11 11 11 10 9 11 11 11 5 6 10 7 5 4 1 4 4 3 4 3 3 2 3 3 4 3 3 3 3 3
8 6 5 7 10 11 11 10 13 12 11 12 12 13 12 11 11 10 8 9 8 5 11 10 10 8 6 5 2 4 4 3 4 4 3 3 3 3 3 5 4 3 3 3
6 8 11 12 12 11 12 12 14 13 10 12 14 12 12 10 9 10 9 7 4 12 11 11 7 6 5 5 4 4 5 4 4 4 3 3 3 3 3 3 3 3 3 3
5 7 8 9 11 11 9 10 12 11 11 10 10 12 12 10 9 6 4 7 7 11 8 7 6 8 6 6 4 5 4 4 4 3 3 3 3 3 3 4 3 2 3 3
5 6 8 8 10 10 10 10 10 11 10 10 11 11 10 8 8 9 8 8 9 9 6 5 10 11 9 5 5 5 5 4 3 3 3 3 4 4 3 3 2 3 3 2
6 6 7 8 9 10 10 7 9 8 8 9 8 9 10 8 5 3 7 10 11 10 7 8 9 10 8 5 5 5 4 4 3 4 3 4 3 3 3 3 3 3 3 2
6 6 7 8 8 7 10 9 9 9 9 9 9 7 9 6 5 7 9 9 15 11 8 7 9 9 5 5 5 4 4 4 4 4 4 3 3 3 3 3 4 2 1 2
7 5 5 6 6 7 7 7 7 6 6 6 5 4 4 6 9 9 9 11 9 11 8 5 4 4 5 5 5 5 5 4 4 3 4 4 4 3 3 3 3 3 3 2
5 6 4 6 5 7 7 7 8 7 7 7 7 7 8 8 9 10 11 9 8 7 7 4 3 5 5 5 5 5 5 4 5 4 3 4 3 3 4 3 3 2 1 1
Wind_Direction
345 353 349 319 315 345 305 222 232 206 252 292 285 324 101 136 140 151 146 156 167 179 184 202 199 222 183 98 107 139 142 137 187 219 322 100 115 112 66 41 27 13 25 21
331 321 307 289 252 252 263 267 271 284 281 260 79 82 80 160 154 157 180 179 174 173 172 194 220 199 115 97 80 94 80 70 64 67 46 45 64 89 68 46 33 27 20 24
244 247 271 265 224 238 246 234 229 256 253 110 72 93 63 16 180 166 176 177 162 158 174 196 148 114 119 106 71 57 70 61 62 63 53 35 30 51 59 56 40 40 32 26
194 12 255 238 246 243 240 244 235 243 91 135 149 124 103 45 122 142 148 149 158 157 148 134 110 111 111 109 88 66 45 49 44 55 48 42 29 36 40 58 58 55 40 34
168 204 273 299 296 293 260 243 288 117 110 107 99 103 50 44 105 160 143 132 132 135 132 127 126 101 85 99 113 98 79 49 57 56 50 39 41 31 22 38 66 64 53 41
143 203 228 209 251 127 51 290 97 103 114 102 79 50 247 183 130 112 122 126 130 127 123 127 130 115 103 105 118 132 142 150 144 107 79 47 54 44 25 14 63 82 65 39
192 235 269 217 290 166 151 224 157 167 139 117 154 191 172 154 122 128 137 136 138 149 157 159 141 135 138 140 167 164 164 168 170 184 199 76 35 30 22 31 47 42 67 46
190 211 259 236 229 158 205 192 182 131 118 126 134 145 147 142 141 134 138 143 152 169 176 160 152 152 151 162 184 150 129 125 111 82 97 85 67 42 31 28 38 25 40 32
172 207 231 199 128 225 154 140 147 122 125 135 133 152 145 156 154 144 138 144 151 133 127 143 166 137 142 144 142 133 121 117 112 94 76 91 81 58 39 33 42 33 32 25
160 227 199 251 228 202 117 85 111 128 124 134 163 161 163 159 167 147 141 147 130 131 130 122 93 124 131 132 135 126 125 127 119 119 106 97 110 94 69 42 54 48 38 16
325 326 29 178 111 125 106 113 77 158 162 170 151 160 157 167 167 152 151 145 135 139 136 130 111 112 114 125 126 122 112 100 96 94 131 107 84 118 106 44 96 89 58 25
225 249 189 235 168 169 179 197 183 163 170 164 146 160 155 156 163 153 139 130 133 139 141 140 127 122 131 134 127 121 112 100 83 95 94 123 139 89 121 132 108 96 84 111
247 231 236 244 239 235 226 200 189 172 160 165 148 156 156 156 162 138 137 137 142 146 138 132 109 87 77 74 83 98 110 124 95 76 67 55 51 128 157 155 123 114 78 40
284 298 302 279 255 285 225 180 145 155 154 153 149 147 148 150 138 139 144 146 136 135 122 119 113 104 98 91 93 97 91 75 97 100 94 62 44 56 98 142 177 144 79 36
254 253 251 248 271 268 165 127 142 156 158 137 134 142 142 141 141 143 142 134 125 116 122 122 120 125 118 116 110 126 114 101 95 127 122 133 66 69 78 67 60 93 56 8
247 253 248 238 244 251 176 145 145 162 143 121 121 128 133 129 127 133 129 130 131 137 140 133 135 148 142 128 126 110 117 135 117 123 109 67 53 80 67 65 74 103 87 341
236 251 253 265 249 156 155 155 158 152 142 134 137 131 125 118 106 106 98 105 118 127 137 138 148 136 131 142 149 166 148 150 138 111 110 98 71 83 80 72 75 107 163 259
250 246 223 212 211 166 154 153 151 148 148 141 138 127 127 134 137 129 121 114 108 102 120 136 133 128 120 129 135 142 150 156 120 108 104 97 77 87 95 87 75 70 58 70
319 274 253 233 196 162 150 146 147 132 134 137 135 138 134 130 135 133 129 125 130 133 167 136 143 137 146 167 124 109 108 112 122 96 110 106 77 83 100 98 80 71 65 58
347 341 91 103 115 132 125 121 119 117 124 125 123 126 129 134 136 132 135 146 158 141 147 151 153 161 144 143 93 114 109 104 116 120 96 95 93 74 99 93 91 84 67 56
44 57 68 78 82 89 110 124 122 126 133 137 138 143 141 133 133 135 136 151 190 147 152 158 162 138 129 131 116 106 105 101 104 131 118 115 103 84 92 92 87 85 68 62
72 83 81 89 98 96 100 113 116 121 124 118 118 125 130 134 136 139 154 151 149 150 149 158 145 131 135 131 118 109 103 101 104 100 104 106 101 94 86 94 89 73 82 82
93 92 95 100 109 107 102 110 117 126 130 135 137 141 148 154 157 158 168 156 144 146 137 120 135 131 121 110 109 109 110 112 120 117 112 108 122 116 117 124 106 94 83 63
102 100 103 108 112 110 110 107 111 112 112 122 125 141 142 144 154 163 125 142 133 118 124 134 129 125 117 116 119 129 140 145 128 119 124 115 118 108 94 105 89 92 83 50
117 125 124 124 118 115 121 122 117 121 126 131 144 144 148 160 153 141 132 118 125 119 121 126 127 123 117 121 129 131 111 106 99 112 109 111 115 108 114 106 122 132 90 66
147 150 153 150 138 141 142 142 140 144 139 138 147 145 127 114 120 118 118 120 118 121 125 128 128 112 121 123 121 120 129 119 110 108 114 119 120 111 120 115 95 88 113 144
176 169 170 136 144 145 153 151 152 156 150 152 143 126 126 123 124 124 122 124 122 124 132 132 133 124 121 123 116 107 116 104 114 122 113 118 110 129 124 123 122 130 123 133